Wind_Speed
10 10 9 9 9 10 10 10 9 9 9 9 10 9 10 10 11 11 12 12 12 13 13 13 13 14 15 16 17 17 17 18 19 20 20 21 21 22
11 11 11 11 11 11 11 11 10 10 10 10 11 11 11 12 12 12 12 12 13 13 14 14 15 15 16 17 17 18 19 19 20 21 22 22 23 23
11 11 12 12 12 12 12 11 11 11 11 11 12 12 12 12 12 13 13 13 14 14 15 15 16 17 17 18 19 20 21 22 23 23 24 24 25 25
13 13 13 13 13 13 13 13 12 12 12 13 13 13 13 14 14 14 15 15 16 16 16 17 18 18 19 20 20 21 22 23 24 24 25 26 26 27
14 14 14 14 14 14 14 13 13 13 14 14 15 15 15 15 15 16 16 17 18 18 19 20 20 21 21 22 23 24 24 25 26 27 28 28 29 29
15 15 15 15 15 15 14 14 15 15 16 16 17 17 18 18 18 18 18 19 20 20 21 22 22 23 24 24 25 26 27 27 28 29 29 30 30 31
16 16 16 16 15 15 15 15 16 17 17 18 19 19 20 20 20 20 21 21 22 23 24 24 25 25 26 27 28 28 29 30 30 31 31 32 32 33
16 16 16 16 16 17 17 17 18 18 19 20 21 21 22 22 22 22 23 24 25 25 26 27 28 29 29 30 30 31 32 33 33 34 34 34 35 36
18 18 18 18 18 18 19 19 19 20 21 22 23 23 23 24 24 25 26 27 27 29 29 30 31 31 32 33 34 35 35 36 36 36 37 37 38 38
19 19 19 20 20 20 20 21 21 22 23 24 24 24 24 25 26 27 28 29 30 31 32 32 33 34 35 36 37 38 39 39 39 40 40 40 41 41
20 20 20 21 21 21 22 22 23 24 25 25 26 27 28 29 29 30 31 31 32 34 35 35 35 36 37 39 40 41 42 42 42 42 42 42 42 42
22 22 22 23 23 23 24 25 25 26 27 27 28 29 30 31 32 33 34 34 35 36 37 38 38 40 40 40 42 43 44 44 44 44 44 44 45 45
24 24 24 24 25 26 26 27 27 28 28 29 30 31 32 33 34 35 35 36 37 38 39 41 41 42 43 42 42 43 44 44 44 45 46 46 47 47
24 24 24 25 26 27 28 29 29 29 30 31 32 33 34 36 36 37 38 39 40 41 42 43 43 43 43 43 43 43 45 45 46 47 48 48 48 49
25 26 26 27 28 29 30 31 31 31 32 33 34 35 36 37 38 39 40 42 43 44 44 45 45 45 45 45 45 45 46 47 48 49 49 49 48 48
28 29 29 29 30 31 32 33 32 33 34 35 37 38 39 40 41 42 43 44 44 45 46 46 46 47 47 48 48 47 48 49 49 50 50 49 49 49
31 31 31 32 33 34 34 34 35 36 36 38 39 40 41 42 43 44 44 45 45 45 45 46 47 48 49 49 49 49 49 49 50 50 50 49 49 50
32 32 33 34 35 36 37 37 38 38 39 40 41 42 43 44 44 45 46 46 47 47 47 48 49 49 50 50 50 50 50 50 49 50 50 49 48 49
35 36 36 36 37 38 39 40 41 42 42 43 44 45 46 46 47 47 47 48 48 49 49 50 50 51 50 49 49 50 51 50 50 49 50 49 48 47
37 37 38 38 39 41 42 44 45 45 46 47 47 48 48 49 48 48 49 50 51 51 51 51 51 51 51 51 50 50 51 51 51 51 50 49 48 47
38 38 40 41 42 44 45 46 47 48 48 48 49 49 49 50 50 50 50 51 51 51 50 50 50 51 51 51 50 49 50 51 51 50 49 48 48 47
40 41 42 44 45 46 46 47 48 48 49 49 49 50 50 50 50 50 51 50 50 50 50 50 50 50 51 50 50 49 49 48 48 48 48 48 47 45
41 42 43 44 45 46 47 47 48 48 48 48 49 49 50 50 50 50 50 50 50 50 50 49 49 49 49 48 48 48 47 46 46 45 45 46 45 44
Wind_Direction
243 250 255 258 265 268 271 275 278 280 281 282 284 286 287 287 288 289 290 290 287 289 290 289 288 287 284 284 284 284 285 286 287 286 286 286 286 285
246 252 257 262 267 269 271 274 277 280 280 282 285 288 289 289 290 290 291 292 290 289 290 289 288 287 287 287 287 287 287 288 288 288 287 287 286 285
249 254 259 263 266 270 272 274 276 278 280 282 285 287 289 290 290 290 289 290 292 291 288 288 288 288 288 289 288 288 288 288 287 287 287 286 286 285
253 257 260 262 266 269 271 273 275 278 279 280 283 285 287 288 290 291 290 290 291 291 290 289 289 290 290 291 291 291 290 289 289 288 287 286 286 285
257 260 262 264 267 269 269 270 274 277 278 280 282 284 286 288 288 290 290 290 290 290 289 289 289 290 291 291 291 291 291 292 291 290 288 287 286 286
261 262 262 264 265 267 270 271 273 274 276 279 281 282 285 285 286 287 288 288 289 290 290 290 290 290 290 291 291 292 292 292 292 291 290 289 288 288
263 263 261 262 265 270 273 274 274 274 275 278 280 281 283 285 285 286 287 288 289 290 291 290 290 291 291 291 291 292 292 293 292 291 290 290 288 288
264 264 264 265 266 270 273 275 276 277 277 279 283 283 283 284 285 287 288 289 290 291 292 292 292 292 292 292 292 291 291 291 291 291 290 289 288 287
264 266 266 266 268 270 272 276 278 279 280 283 284 285 284 284 286 288 289 289 290 290 290 291 291 292 292 292 291 291 291 291 290 290 289 288 287 287
264 268 269 268 268 271 273 276 278 280 281 282 284 284 285 286 288 288 290 290 290 290 291 291 291 291 292 292 292 292 292 291 290 290 289 289 289 288
266 268 270 270 271 273 275 278 280 281 282 282 284 285 285 287 288 289 290 290 290 291 292 292 291 291 292 292 293 293 292 291 291 290 289 289 289 288
268 270 270 272 273 275 278 279 281 282 283 285 286 286 287 288 289 290 290 290 290 290 291 291 291 291 291 291 292 292 292 291 291 290 289 288 288 287
270 272 271 272 274 276 278 280 280 282 283 285 286 287 288 289 289 290 290 291 291 291 291 291 292 292 292 292 291 292 291 290 289 289 289 289 289 288
271 273 272 273 275 277 279 281 282 283 284 285 287 288 290 290 291 291 291 291 292 292 293 293 293 293 293 293 293 293 292 292 291 290 291 290 290 289
271 272 271 273 275 277 280 282 282 283 285 286 287 288 290 290 290 291 292 293 294 294 294 294 294 293 293 294 294 294 293 292 292 292 291 291 290 289
270 271 272 275 277 278 281 281 283 285 286 286 287 288 289 290 290 291 292 293 294 295 295 295 295 294 294 294 295 295 295 294 292 292 292 292 291 290
270 272 274 277 279 280 282 283 283 284 286 288 288 289 290 290 291 291 292 294 294 294 294 294 294 294 295 295 295 295 295 295 294 294 293 293 293 292
272 274 275 277 279 280 282 282 284 285 286 288 289 290 290 291 292 292 293 293 293 294 294 294 294 294 295 296 296 295 295 295 295 294 294 293 293 292
274 274 275 277 279 281 282 283 284 286 287 288 289 290 291 292 293 293 294 294 294 294 295 294 294 294 295 295 295 295 295 294 294 293 293 293 293 293
274 275 276 277 279 280 282 283 284 285 286 288 289 290 292 292 293 293 293 294 294 294 295 294 294 295 295 295 295 295 295 295 294 293 293 292 294 294
277 277 277 278 279 281 283 284 285 286 286 288 290 291 292 293 293 293 294 294 294 295 295 294 294 294 294 294 295 295 295 295 295 295 294 294 294 295
278 280 280 280 281 282 283 284 285 286 287 289 290 291 292 293 293 293 293 294 294 295 295 294 294 294 295 295 295 296 296 295 295 295 296 297 297 296
280 281 283 284 284 284 285 286 286 287 288 290 291 291 292 292 292 293 293 294 294 294 295 294 294 295 295 295 296 297 297 296 295 295 296 297 297 297
Height
5871 5871 5872 5872 5872 5873 5873 5873 5873 5872 5872 5872 5871 5870 5869 5869 5868 5867 5867 5866 5865 5865 5864 5863 5863 5862 5862 5861 5860 5859 5859 5858 5857 5856 5855 5854 5853 5853
5868 5869 5870 5870 5870 5870 5871 5870 5870 5870 5870 5870 5869 5868 5867 5867 5866 5865 5864 5863 5863 5862 5861 5860 5859 5859 5858 5857 5856 5855 5854 5853 5852 5851 5850 5849 5848 5847
5866 5867 5867 5868 5868 5868 5868 5868 5868 5868 5867 5867 5866 5866 5865 5864 5863 5862 5861 5860 5860 5859 5858 5857 5856 5855 5854 5853 5852 5850 5849 5848 5847 5846 5844 5843 5842 5841
5863 5864 5865 5865 5865 5865 5865 5865 5865 5865 5865 5864 5864 5863 5862 5861 5860 5859 5858 5857 5856 5855 5854 5853 5852 5851 5849 5848 5847 5845 5844 5842 5841 5839 5838 5837 5835 5834
5860 5861 5861 5862 5862 5862 5862 5862 5862 5862 5861 5861 5860 5860 5859 5858 5857 5856 5855 5854 5852 5851 5850 5849 5847 5846 5844 5843 5841 5839 5838 5836 5834 5832 5831 5829 5828 5827
5857 5857 5858 5858 5858 5858 5858 5858 5858 5858 5858 5857 5856 5856 5855 5854 5853 5852 5851 5849 5848 5846 5845 5843 5842 5840 5838 5836 5835 5833 5831 5829 5827 5825 5823 5821 5820 5818
5853 5853 5854 5854 5854 5855 5854 5854 5854 5854 5853 5853 5852 5851 5850 5849 5848 5847 5846 5844 5842 5841 5839 5837 5836 5834 5832 5830 5828 5826 5824 5822 5819 5817 5815 5813 5811 5809
5849 5849 5849 5850 5850 5850 5850 5850 5850 5849 5849 5848 5847 5846 5845 5844 5842 5841 5840 5838 5837 5835 5833 5831 5829 5827 5825 5822 5820 5818 5815 5813 5811 5808 5806 5803 5801 5799
5844 5845 5845 5846 5846 5846 5846 5845 5845 5844 5844 5843 5842 5840 5839 5838 5836 5835 5834 5832 5830 5828 5826 5824 5821 5819 5816 5814 5811 5809 5806 5803 5801 5798 5796 5793 5791 5788
5840 5840 5840 5841 5841 5841 5841 5840 5839 5838 5838 5837 5836 5834 5833 5831 5830 5828 5826 5825 5822 5820 5818 5816 5813 5811 5808 5804 5801 5799 5796 5793 5790 5787 5785 5782 5780 5777
5835 5835 5835 5835 5835 5835 5835 5834 5833 5832 5831 5830 5829 5827 5825 5824 5822 5821 5818 5816 5814 5811 5808 5807 5804 5801 5799 5795 5791 5788 5784 5781 5778 5776 5773 5770 5768 5765
5829 5829 5829 5829 5829 5829 5828 5828 5827 5825 5824 5823 5821 5819 5818 5816 5814 5812 5810 5808 5805 5803 5799 5796 5794 5790 5788 5785 5781 5776 5772 5769 5766 5763 5760 5757 5754 5752
5823 5823 5823 5823 5822 5822 5821 5820 5819 5818 5816 5815 5813 5811 5809 5807 5804 5802 5800 5798 5795 5792 5788 5785 5782 5778 5775 5773 5770 5765 5760 5757 5753 5750 5747 5744 5740 5737
5817 5817 5816 5816 5815 5814 5814 5813 5811 5810 5809 5807 5805 5802 5800 5797 5795 5792 5789 5787 5783 5780 5776 5773 5770 5766 5762 5759 5756 5753 5748 5743 5740 5737 5733 5730 5726 5723
5810 5809 5809 5809 5808 5807 5806 5804 5802 5801 5799 5798 5795 5793 5790 5787 5784 5781 5778 5775 5772 5768 5764 5760 5757 5753 5749 5745 5742 5739 5735 5730 5726 5722 5718 5715 5711 5708
5802 5801 5801 5800 5800 5798 5797 5795 5793 5791 5790 5788 5785 5783 5780 5777 5773 5770 5767 5764 5760 5757 5752 5747 5743 5740 5736 5732 5728 5725 5720 5716 5712 5707 5703 5700 5696 5692
5793 5793 5793 5792 5791 5789 5787 5785 5784 5782 5779 5777 5774 5772 5769 5765 5762 5758 5755 5751 5748 5744 5740 5735 5731 5727 5723 5719 5715 5710 5706 5701 5697 5692 5688 5685 5681 5677
5785 5784 5783 5782 5781 5780 5778 5776 5773 5771 5769 5766 5763 5760 5757 5753 5750 5746 5742 5738 5735 5731 5726 5722 5718 5714 5710 5705 5701 5695 5691 5686 5682 5678 5673 5670 5667 5663
5776 5775 5773 5772 5771 5769 5767 5765 5762 5760 5757 5754 5751 5748 5744 5740 5737 5733 5729 5725 5721 5717 5712 5708 5703 5700 5696 5693 5688 5681 5676 5672 5668 5664 5659 5655 5652 5648
5765 5764 5763 5761 5759 5757 5755 5753 5750 5747 5744 5741 5738 5734 5731 5727 5723 5719 5715 5711 5707 5703 5698 5693 5689 5684 5680 5677 5673 5669 5661 5656 5652 5648 5645 5640 5637 5633
5754 5753 5751 5749 5747 5745 5742 5740 5737 5734 5731 5728 5724 5721 5717 5713 5709 5705 5701 5696 5692 5688 5684 5679 5674 5669 5665 5661 5658 5654 5648 5641 5636 5632 5629 5625 5622 5619
5743 5741 5740 5737 5735 5732 5729 5726 5723 5720 5717 5714 5710 5706 5702 5698 5694 5690 5686 5682 5678 5673 5669 5665 5659 5655 5650 5646 5642 5638 5634 5629 5623 5618 5613 5609 5606 5603
5731 5729 5727 5724 5721 5718 5715 5712 5709 5706 5703 5699 5696 5692 5688 5684 5680 5676 5671 5667 5663 5659 5655 5650 5645 5641 5636 5632 5627 5623 5619 5615 5610 5606 5602 5596 5592 5589